<?xml version="1.0" encoding="UTF-8" standalone="no" ?>
<gpx xmlns="http://www.topografix.com/GPX/1/1" xmlns:xsi="http://www.w3.org/2001/XMLSchema-instance" xsi:schemaLocation="http://www.topografix.com/GPX/1/1 http://www.topografix.com/GPX/1/1/gpx.xsd" version="1.1" creator="VisuGPX - https://www.visugpx.com">
  <metadata>
    <name>Situation 19/07/21 22h00</name>
  </metadata>
  <trk>
    <name><![CDATA[Fin Gier ]]></name>
    <extensions>
      <line xmlns="http://www.topografix.com/GPX/gpx_style/0/2">
        <color>0000FF</color>
        <width>4</width>
      </line>
    </extensions>
    <trkseg>
      <trkpt lat="45.71859" lon="4.75869">
        <ele>315.4</ele>
      </trkpt>
      <trkpt lat="45.71859" lon="4.75869">
        <ele>315.4</ele>
      </trkpt>
      <trkpt lat="45.71859" lon="4.75869">
        <ele>315.4</ele>
      </trkpt>
      <trkpt lat="45.71859" lon="4.75869">
        <ele>315.4</ele>
      </trkpt>
      <trkpt lat="45.71859" lon="4.75869">
        <ele>315.4</ele>
      </trkpt>
      <trkpt lat="45.71859" lon="4.75869">
        <ele>315.4</ele>
      </trkpt>
      <trkpt lat="45.71859" lon="4.75869">
        <ele>315.4</ele>
      </trkpt>
      <trkpt lat="45.71859" lon="4.75869">
        <ele>315.4</ele>
      </trkpt>
      <trkpt lat="45.71859" lon="4.75869">
        <ele>315.4</ele>
      </trkpt>
      <trkpt lat="45.71859" lon="4.75869">
        <ele>315.4</ele>
      </trkpt>
      <trkpt lat="45.71859" lon="4.75869">
        <ele>315.4</ele>
      </trkpt>
      <trkpt lat="45.71859" lon="4.75869">
        <ele>315.4</ele>
      </trkpt>
      <trkpt lat="45.71859" lon="4.75869">
        <ele>315.4</ele>
      </trkpt>
      <trkpt lat="45.71859" lon="4.75869">
        <ele>315.4</ele>
      </trkpt>
      <trkpt lat="45.71859" lon="4.75869">
        <ele>315.4</ele>
      </trkpt>
      <trkpt lat="45.71859" lon="4.75869">
        <ele>315.4</ele>
      </trkpt>
      <trkpt lat="45.71859" lon="4.75869">
        <ele>315.4</ele>
      </trkpt>
      <trkpt lat="45.71859" lon="4.75869">
        <ele>315.4</ele>
      </trkpt>
      <trkpt lat="45.72285" lon="4.76093">
        <ele>306.7</ele>
        <time>1899-12-30T00:00:00Z</time>
      </trkpt>
      <trkpt lat="45.72322" lon="4.76202">
        <ele>302.8</ele>
        <time>1899-12-30T00:00:00Z</time>
      </trkpt>
      <trkpt lat="45.7237" lon="4.76627">
        <ele>284.2</ele>
        <time>1899-12-30T00:00:00Z</time>
      </trkpt>
      <trkpt lat="45.7239" lon="4.76888">
        <ele>263.2</ele>
      </trkpt>
      <trkpt lat="45.72429" lon="4.77128">
        <ele>246.4</ele>
      </trkpt>
      <trkpt lat="45.72494" lon="4.77315">
        <ele>216.6</ele>
      </trkpt>
      <trkpt lat="45.72546" lon="4.77414">
        <ele>209.2</ele>
      </trkpt>
      <trkpt lat="45.72587" lon="4.77572">
        <ele>207.3</ele>
        <time>1899-12-30T00:00:00Z</time>
      </trkpt>
      <trkpt lat="45.72668" lon="4.78129">
        <ele>195.8</ele>
        <time>1899-12-30T00:00:00Z</time>
      </trkpt>
      <trkpt lat="45.7269" lon="4.78262">
        <ele>220.3</ele>
      </trkpt>
      <trkpt lat="45.72734" lon="4.78403">
        <ele>237.5</ele>
      </trkpt>
      <trkpt lat="45.72786" lon="4.7851">
        <ele>248.9</ele>
      </trkpt>
      <trkpt lat="45.72813" lon="4.78567">
        <ele>251.5</ele>
      </trkpt>
      <trkpt lat="45.72846" lon="4.78714">
        <ele>263.1</ele>
      </trkpt>
      <trkpt lat="45.72903" lon="4.79023">
        <ele>284</ele>
      </trkpt>
      <trkpt lat="45.7294" lon="4.79344">
        <ele>291.8</ele>
        <time>1899-12-30T00:00:00Z</time>
      </trkpt>
      <trkpt lat="45.72947" lon="4.79502">
        <ele>304</ele>
        <time>1899-12-30T00:00:00Z</time>
      </trkpt>
      <trkpt lat="45.72947" lon="4.79502">
        <ele>304</ele>
        <time>1899-12-30T00:00:00Z</time>
      </trkpt>
      <trkpt lat="45.72947" lon="4.79502">
        <ele>304</ele>
        <time>1899-12-30T00:00:00Z</time>
      </trkpt>
      <trkpt lat="45.73342" lon="4.79915">
        <ele>305</ele>
        <time>1899-12-30T00:00:00Z</time>
      </trkpt>
      <trkpt lat="45.73478" lon="4.80009">
        <ele>301</ele>
        <time>1899-12-30T00:00:00Z</time>
      </trkpt>
      <trkpt lat="45.7364" lon="4.80103">
        <ele>310</ele>
        <time>1899-12-30T00:00:00Z</time>
      </trkpt>
      <trkpt lat="45.74075" lon="4.80359">
        <ele>306</ele>
        <time>1899-12-30T00:00:00Z</time>
      </trkpt>
      <trkpt lat="45.74578" lon="4.80729">
        <ele>305</ele>
        <time>1899-12-30T00:00:00Z</time>
      </trkpt>
      <trkpt lat="45.74625" lon="4.80693">
        <ele>307</ele>
        <time>1899-12-30T00:00:00Z</time>
      </trkpt>
      <trkpt lat="45.74653" lon="4.8062">
        <ele>304</ele>
        <time>1899-12-30T00:00:00Z</time>
      </trkpt>
      <trkpt lat="45.74747" lon="4.80656">
        <ele>306</ele>
        <time>1899-12-30T00:00:00Z</time>
      </trkpt>
      <trkpt lat="45.74754" lon="4.80656">
        <ele>305</ele>
        <time>1899-12-30T00:00:00Z</time>
      </trkpt>
      <trkpt lat="45.74754" lon="4.80656">
        <ele>305</ele>
        <time>1899-12-30T00:00:00Z</time>
      </trkpt>
      <trkpt lat="45.74754" lon="4.80656">
        <ele>305</ele>
        <time>1899-12-30T00:00:00Z</time>
      </trkpt>
      <trkpt lat="45.74991" lon="4.80734">
        <ele>306</ele>
        <time>1899-12-30T00:00:00Z</time>
      </trkpt>
      <trkpt lat="45.75149" lon="4.80813">
        <ele>309</ele>
        <time>1899-12-30T00:00:00Z</time>
      </trkpt>
      <trkpt lat="45.75282" lon="4.8098">
        <ele>305</ele>
        <time>1899-12-30T00:00:00Z</time>
      </trkpt>
      <trkpt lat="45.75936" lon="4.81423">
        <ele>293</ele>
        <time>1899-12-30T00:00:00Z</time>
      </trkpt>
      <trkpt lat="45.75969" lon="4.81538">
        <ele>296</ele>
        <time>1899-12-30T00:00:00Z</time>
      </trkpt>
    </trkseg>
  </trk>
</gpx>